Tracking 30009 objects as of 7-Dec-2024
HD Live streaming from Space Station
objects crossing your sky now

STARLINK-31153

Track STARLINK-31153 now!
10-day predictions
STARLINK-31153 is classified as:


NORAD ID: 59044
Int'l Code: 2024-038X
Perigee: 494.3 km
Apogee: 496.1 km
Inclination: 43.0 °
Period: 94.4 minutes
Semi major axis: 6866 km
RCS: Unknown
Launch date: February 25, 2024
Source: United States (US)
Launch site: AIR FORCE EASTERN TEST RANGE (AFETR)
Your satellite tracking list
Your tracking list is empty




NASA's NSSDC Master Catalog

Two Line Element Set (TLE):
1 59044U 24038X   24341.68223775 -.00000883  00000-0 -23911-4 0  9994
2 59044  43.0019  89.1284 0001303 281.9602  78.1103 15.25905736 44650
Source of the keplerian elements: AFSPC